Lid_Strength_Index
0 -1 0 1 1 1 1 2 2 3 3 3 3 3 3 3 3 6 9 7 4 1 2 5 5 5 4 5 5 6 7 10 10 9 8 6 7 8 7 7 7 7 7 7 6
1 0 -0 0 1 1 1 2 2 2 3 3 3 3 3 3 7 9 5 2 1 1 6 6 7 5 5 6 5 6 8 9 7 6 7 6 6 7 7 7 7 8 8 7 6
2 2 0 0 1 1 1 1 2 2 2 2 2 3 3 4 10 11 4 1 2 3 6 7 5 5 6 5 7 8 8 8 7 6 5 6 7 6 6 7 6 6 8 7 7
2 2 1 0 0 1 1 1 1 2 2 2 1 2 3 5 13 8 1 1 2 5 6 6 6 6 7 7 7 8 9 9 9 7 6 6 6 7 6 6 7 6 7 7 7
2 2 2 0 1 0 1 1 2 2 2 2 2 2 5 9 10 5 2 3 6 7 7 7 7 6 7 6 7 8 9 9 9 8 7 7 7 7 7 7 7 7 7 7 7
0 1 1 -0 1 1 0 1 2 2 2 2 1 2 7 12 7 4 5 7 7 8 8 6 6 5 6 7 7 9 9 9 9 9 9 9 9 8 8 8 8 8 8 7 7
-0 -1 -0 0 -0 1 0 1 1 1 1 1 1 5 9 11 6 6 6 7 7 7 8 7 6 6 6 8 8 8 10 9 9 9 10 10 10 10 8 8 8 8 8 8 7
-0 -1 -1 -0 0 0 1 0 1 1 1 1 2 5 11 7 6 7 7 7 7 7 7 7 6 7 7 7 8 9 8 10 9 9 10 9 10 10 9 8 8 8 8 8 8
-1 -1 -1 -1 -0 0 1 1 1 1 1 1 5 8 12 5 8 7 7 8 7 8 8 8 8 9 8 8 9 10 11 10 10 10 9 9 9 10 10 9 8 8 8 8 8
-0 -0 -1 -1 -0 -0 0 1 1 1 2 4 5 10 10 11 8 8 7 7 9 8 9 9 9 10 10 9 13 11 11 11 10 10 11 10 10 9 10 9 8 8 8 7 8
1 1 0 -0 -0 -0 0 3 6 7 5 9 11 12 11 9 8 9 7 8 8 9 12 11 12 13 12 10 9 9 10 11 11 12 12 10 10 9 8 10 9 9 8 8 8
1 1 1 0 0 0 2 6 7 7 10 7 8 9 9 8 11 10 8 9 10 13 11 12 14 11 11 11 11 11 11 13 13 13 12 11 12 10 9 9 8 8 9 8 8
2 1 1 1 1 1 4 6 5 6 11 11 8 10 10 9 11 11 9 10 11 13 12 13 13 12 12 13 13 13 13 13 14 14 14 14 12 11 10 10 10 9 8 8 8
1 1 1 1 2 2 3 4 3 5 12 12 11 9 9 9 12 9 8 9 11 13 12 12 13 13 13 13 12 14 13 14 15 15 16 15 16 12 12 12 12 11 10 9 9
1 1 1 1 4 4 3 2 3 5 20 11 11 8 9 11 11 12 9 10 12 13 11 14 14 14 13 13 12 14 14 14 15 15 16 16 16 13 14 13 12 11 10 9 9
1 1 1 2 3 3 3 2 4 13 19 12 11 12 12 12 12 11 11 10 11 12 12 13 12 13 12 14 12 14 14 14 15 15 17 16 16 14 13 12 11 10 10 10 10
1 1 2 2 3 1 2 4 14 17 10 13 13 12 13 14 13 12 13 14 13 15 15 14 14 13 13 14 14 13 14 17 18 18 19 18 18 15 12 13 12 10 10 10 10
1 2 3 3 2 1 3 9 17 13 13 9 12 12 14 14 14 13 14 15 13 14 15 16 18 15 13 14 15 14 13 16 19 20 18 18 18 15 13 13 12 12 11 12 12
1 5 5 3 2 3 6 14 14 12 10 11 11 13 15 14 13 14 14 14 13 14 15 16 17 14 14 14 13 15 16 13 18 21 18 17 15 13 13 13 13 12 13 12 12
6 6 7 4 2 4 10 12 11 8 8 9 12 12 15 15 15 15 15 13 13 13 13 15 17 15 14 13 13 15 13 16 16 19 19 18 18 15 14 14 13 13 12 12 11
6 9 6 3 3 9 12 12 10 7 7 9 10 13 12 14 13 15 15 13 12 13 13 14 15 17 15 15 15 15 16 16 15 16 18 19 16 12 12 12 12 12 12 12 12
7 11 6 3 10 11 12 11 8 8 7 8 8 10 12 11 13 13 14 13 11 12 14 13 15 17 17 15 14 15 15 14 16 19 17 17 15 13 13 12 13 12 12 11 11
9 10 5 5 14 13 11 11 9 9 9 9 10 9 10 11 13 12 12 11 12 13 13 13 15 18 18 16 16 16 15 14 14 15 17 18 16 14 13 13 13 12 12 12 12
9 12 10 8 9 11 12 11 11 7 8 8 9 8 10 11 10 11 12 11 11 12 10 11 14 15 17 16 15 17 16 16 15 17 16 16 14 13 12 12 13 13 12 11 12
9 10 10 15 13 12 10 11 12 12 8 8 10 10 11 13 11 12 11 11 11 10 11 11 16 15 14 15 15 15 16 16 16 15 16 15 15 12 11 11 11 11 12 12 12
11 11 11 11 10 11 10 12 12 10 10 11 11 10 10 12 11 12 10 11 12 11 11 11 14 15 17 15 16 17 15 15 15 15 14 14 15 11 11 12 12 12 13 13 12
8 7 7 10 11 11 11 11 11 8 8 7 8 9 10 9 8 7 8 9 9 11 13 13 14 15 17 15 15 17 16 15 15 14 14 16 13 13 13 13 12 12 12 12 12